Regional Weather Roundup
Issued by NWS

Home | Current Version | Previous Version | Graphics & Text | Print | Product List | Glossary On
Versions: 1 2 3 4 5 6 7 8 9 10 11 12 13 14 15 16 17 18 19 20 21 22 23 24 25 26 27 28 29 30 31 32 33 34 35 36 37 38 39 40 41 42 43 44 45 46 47 48 49 50
839
ASUS43 KMKX 241000
RWRWI

WISCONSIN REGIONAL WEATHER ROUNDUP
NATIONAL WEATHER SERVICE MILWAUKEE/SULLIVAN WI
500 AM CDT FRI MAR 24 2017

NOTE: "FAIR" INDICATES FEW OR NO CLOUDS BELOW 12,000 FEET WITH NO
SIGNIFICANT WEATHER AND/OR OBSTRUCTIONS TO VISIBILITY.

WIZ001-002-006>008-014>016-023>028-241100-
NORTHWEST WISCONSIN

CITY           SKY/WX    TMP DP  RH WIND       PRES   REMARKS
SUPERIOR ARPT  CLOUDY    32  32 100 CALM      29.90F FOG
ASHLAND        FOG       32  32 100 CALM      29.90S VSB 1/2
HAYWARD        CLOUDY    35  31  85 CALM      29.89R FOG
SIREN          CLOUDY    34  33  97 CALM      29.90R FOG
CUMBERLAND     CLOUDY    34  32  93 N5        29.87F FOG     WCI  30
RICE LAKE      CLOUDY    36  36 100 CALM      29.88F FOG
CHETEK         RAIN      36  36 100 CALM      29.87F
LADYSMITH      LGT RAIN  35  35  99 NE5       29.89R WCI  31
EAU CLAIRE     CLOUDY    37  37 100 CALM      29.82F FOG
MENOMONIE      CLOUDY    38  37  94 E3        29.84F FOG
NEW RICHMOND   LGT RAIN  36  36 100 NE7       29.84F WCI  30
OSCEOLA        CLOUDY    37  37 100 N5        29.88F FOG     WCI  33
$$

WIZ003>005-009-010-017-018-241100-
NORTH CENTRAL WISCONSIN

CITY           SKY/WX    TMP DP  RH WIND       PRES   REMARKS
MANITOWISH WTR CLOUDY    32  32 100 CALM      29.86F FOG
ARBOR VITAE    CLOUDY    34  33  94 CALM      29.88R FOG
WOODRUFF       CLOUDY    34  33  94 CALM      29.88R FOG
RHINELANDER    CLOUDY    34  32  92 CALM      29.89R FOG
EAGLE RIVER    MIX PCPN  32  32 100 CALM      29.87R
LAND O LAKES   CLOUDY    33  33  99 CALM      29.87R FOG
PHILLIPS       CLOUDY    33  33  99 CALM      29.88R
TOMAHAWK       DRIZZLE   32  31  98 CALM      29.89R
MEDFORD        LGT RAIN  34  34  99 E3        29.84F
MERRILL        DRIZZLE   33  33 100 NE7       29.86F WCI  27
$$

WIZ029-030-035-036-043>047-241100-
CENTRAL WISCONSIN

CITY           SKY/WX    TMP DP  RH WIND       PRES   REMARKS
WAUSAU         RAIN      34  34 100 SE5       29.85F FOG     WCI  30
MOSINEE        MIX PCPN  34  34 100 CALM      29.87F
MARSHFIELD     HVY RAIN  37  37 100 SW7       29.85R FOG     WCI  32
STEVENS POINT  RAIN      34  34 100 SE3       29.88F
WAUPACA        CLOUDY    37  35  91 NW3       29.90S FOG
WAUTOMA        CLOUDY    38  37  97 E6        29.88S WCI  33
WISC RAPIDS    CLOUDY    38  37  97 E3        29.87F FOG
CAMP DOUGLAS   NOT AVBL
$$

WIZ011>013-019>022-031-037>040-048>050-241100-
NORTHEAST WISCONSIN

CITY           SKY/WX    TMP DP  RH WIND       PRES   REMARKS
ANTIGO         MIX PCPN  32  32 100 CALM      29.88R
SHAWANO        LGT RAIN  36  34  92 CALM      29.93R
OCONTO         CLOUDY    34  33  96 CALM      29.90R
STURGEON BAY   CLOUDY    36  35  96 CALM      29.91R FOG
GREEN BAY      CLOUDY    37  36  96 CALM      29.91R FOG
MANITOWOC      NOT AVBL
APPLETON       CLOUDY    37  37 100 N6        29.88R WCI  33
CLINTONVILLE   LGT RAIN  34  32  93 CALM      29.91S
OSHKOSH        CLOUDY    38  35  89 N6        29.90R FOG     WCI  33
$$

WIZ032>034-041-042-053>061-241100-
SOUTHWEST WISCONSIN

CITY           SKY/WX    TMP DP  RH WIND       PRES   REMARKS
LA CROSSE      CLOUDY    41  40  96 CALM      29.83F
SPARTA         CLOUDY    39  38  97 CALM      29.87F
VIROQUA        CLOUDY    41  39  93 N3        29.85R
BOSCOBEL       CLOUDY    42  37  82 NE5       29.85R
PRAIRIE DU CHI PTCLDY    43  37  79 CALM      29.81R
PLATTEVILLE    CLOUDY    44  42  91 S9        29.82S
$$

WIZ056-057-062-063-064-067-068-241100-
SOUTH CENTRAL WISCONSIN

CITY           SKY/WX    TMP DP  RH WIND       PRES   REMARKS
REEDSBURG      CLOUDY    42  40  93 N6        29.86R
BARABOO/DELLS  CLOUDY    43  37  78 N6        29.86R
LONE ROCK      NOT AVBL
MINERAL POINT  PTCLDY    43  41  93 SE9       29.81S
MADISON        CLOUDY    46  39  76 SW9       29.83F
MIDDLETON      CLOUDY    46  39  77 SW6       29.84S
WATERTOWN      CLOUDY    43  39  86 S5        29.84F
MONROE         PTCLDY    43  37  81 S18       29.82F
JANESVILLE     CLOUDY    46  39  76 S9        29.85S
$$

WIZ051-052-058>065-066-070>072-241100-
SOUTHEAST WISCONSIN

CITY           SKY/WX    TMP DP  RH WIND       PRES   REMARKS
MILWAUKEE      MOCLDY    49  40  71 SW13      29.86S
WAUKESHA       PTCLDY    45  37  76 SW14G21   29.85F
MILWAUKEE/TIMM CLOUDY    45  36  70 S6        29.86S
RACINE         CLOUDY    49  39  68 SW13      29.88S
KENOSHA        CLOUDY    50  41  71 SW12      29.87S
FOND DU LAC    CLOUDY    39  34  82 N6        29.88R WCI  35
SHEBOYGAN      CLOUDY    37  34  89 MISG      29.89R FOG
WEST BEND      PTCLDY    39  36  87 CALM      29.85F
JUNEAU         PTCLDY    42  37  83 CALM      29.86R
$$

LSZ147-162-241100-
LAKE SUPERIOR

STATION/POSITION TIME  TEMP    WIND        PRES    WAVE
                       AIR SEA DIR/SP/G            HT/PER
                 (UTC) (F)     (DEG/KT/KT) (MB)    (FT/S)
DEVILS ISLAND    0900   33     210/  3/  3 1013.8F
PORT WING        0940   33      70/  1/  2 1012.5F
SAXON HARBOR     0930   33      CALM  /  1 1012.5F
$$

LMZ867-665-643>646-241100-
LAKE MICHIGAN

STATION/POSITION TIME  TEMP    WIND        PRES    WAVE
                       AIR SEA DIR/SP/G            HT/PER
                 (UTC) (F)     (DEG/KT/KT) (MB)    (FT/S)
CHAMBERS ISLAND  0940   35      CALM  /  1 1012.2S
NORTHPORT PIER   0940   36      CALM  /  2 1012.9S
KEWAUNEE LAKESHO 0930   36      CALM  /  3 1011.8F
SHEBOYGAN LAKESH 0900   38     170/  5/  5 1012.3S
PORT WASHINGTON  0940   38      CALM  /  3 1012.2F
MILWAUKEE LAKESH 0940   49     220/ 10/ 11   N/A
KENOSHA   LAKESH 0900   42     170/ 14/ 15 1011.9
$$

TC  - TEMPERATURE IN CELSIUS
VSB - VISIBILITY IN STATUTE MILES
WCI - WIND CHILL INDEX
HX  - HEAT INDEX





USA.gov is the U.S. government's official web portal to all federal, state and local government web resources and services.